Simultaneous Nadir Overpasses (SNOs) Predictions

Prediction of SNOs between AQUA and NPP Satellite Orbit:

Table of predicted SNOs for the next 14.0 days since TLE Epoch: 1/18/2025
Index Date (AQUA) Time (AQUA) Lat,Lon (AQUA) SZA (AQUA ) Date (NPP) Time (NPP) Lat,Lon (NPP) SZA (NPP ) Distance(km) Time Diff (sec)
1 01/20/2025 00:18:06 81.30, 105.36 107.32 01/20/2025 00:17:53 81.30, 105.43 107.32 1.35 13
2 01/20/2025 01:07:25 -81.31, -86.86 72.70 01/20/2025 01:08:37 -81.30, -86.67 72.78 3.31 72
3 01/22/2025 10:39:50 -81.31, 130.08 73.22 01/22/2025 10:39:35 -81.30, 130.10 73.21 0.89 15
4 01/22/2025 11:29:10 81.29, -62.61 106.82 01/22/2025 11:30:19 81.30, -62.43 106.76 3.22 69
5 01/24/2025 21:01:33 81.29, 154.44 106.26 01/24/2025 21:01:17 81.30, 154.26 106.30 3.16 16
6 01/24/2025 21:50:52 -81.30, -37.72 73.78 01/24/2025 21:52:01 -81.30, -37.82 73.80 1.76 69
7 01/27/2025 07:23:14 -81.30, 179.13 74.35 01/27/2025 07:22:58 -81.30, 179.20 74.35 1.15 16
8 01/27/2025 08:12:33 81.29, -13.26 105.65 01/27/2025 08:13:42 81.30, -13.35 105.63 1.62 69
9 01/29/2025 17:44:52 81.29,-156.30 105.03 01/29/2025 17:44:38 81.30,-156.40 105.06 1.86 14



Historial Predications of SNOs between AQUA and NPP
